[[{"header":{"parameterUnit":"m.s-1","parameterCategory":1,"la1":30.2991,"la2":30.254,"lo1":-89.0895,"lo2":-89.0444,"dy":0.0017,"dx":0.0017,"nx":28,"ny":28,"refTime":"2024-08-30T21:00:00:Z","depth":0,"parameterNumber":2,"parameterNumberName":"U-component_of_WINDS"},"data":[0,0,0,0,0,0,0,0,0,0,0,0,0,0,0,0,0,0,0,0,0,0,0,0,0,0,0,0,0,0,0,0,0,0,0,0,0,0,0,0,0,0,0,0,0,0,0,0,0,0,0,0,0,0,0,0,0,0,-5.3879,-5.3879,0,-5.3855,-5.3854,-5.3854,-5.3747,-5.3744,-5.3742,-5.3739,-5.3715,-5.3716,-5.3718,0,0,0,0,0,0,0,0,0,0,0,0,0,-5.3836,-5.3837,-5.3879,-5.3879,-5.3879,-5.3855,-5.3854,-5.3854,-5.3747,-5.3744,-5.3741,-5.3738,-5.3714,-5.3716,-5.3718,0,0,0,0,0,0,0,0,0,0,0,0,0,-5.3837,-5.3837,-5.3879,-5.3822,-5.3817,-5.3855,-5.3854,-5.3854,-5.3748,-5.3744,-5.374,-5.3737,-5.3714,-5.3716,-5.3718,-5.3809,0,0,-5.3726,-5.3727,0,0,0,0,0,0,0,0,-5.3837,-5.3839,-5.3831,-5.3826,-5.382,-5.38,-5.383,-5.3839,-5.3749,-5.3774,-5.3739,-5.3735,-5.3746,-5.3746,-5.3749,-5.3808,-5.3807,-5.3726,-5.3728,-5.3729,-5.373,0,0,0,0,0,0,0,-5.3837,-5.3839,-5.3869,-5.3831,-5.3825,-5.3799,-5.3795,-5.3831,-5.3781,-5.3772,-5.3764,-5.3762,-5.3742,-5.3747,-5.3748,-5.3806,-5.3726,-5.3728,-5.373,-5.3731,-5.3938,-5.3942,0,0,0,0,0,0,-5.3845,-5.384,-5.387,-5.3869,-5.382,-5.3803,-5.3798,-5.381,-5.3781,-5.3773,-5.3766,-5.3757,-5.3745,-5.3745,-5.3747,-5.3849,-5.3729,-5.3731,-5.3733,-5.3934,-5.3939,-5.3944,0,0,0,0,0,0,-5.3845,-5.3849,-5.3871,-5.3852,-5.3853,-5.3807,-5.3822,-5.3812,-5.3816,-5.3776,-5.3767,-5.3779,-5.3742,-5.3743,-5.3794,-5.3847,-5.3732,-5.3735,-5.393,-5.3936,-5.3941,-5.4057,0,0,0,0,0,0,-5.3844,-5.3849,-5.3882,-5.3854,-5.3855,-5.3919,-5.3825,-5.3814,-5.3821,-5.381,-5.3786,-5.3779,-5.3739,-5.3791,-5.3797,-5.3849,-5.3737,-5.3925,-5.3932,-5.3939,-5.4048,-5.4066,-5.4082,0,0,0,0,0,-5.3843,-5.3916,-5.3884,-5.3889,-5.3895,-5.3922,-5.3922,-5.3874,-5.3825,-5.3858,-5.3833,-5.378,-5.3842,-5.3797,-5.3803,-5.3856,-5.3921,-5.393,-5.3939,-5.4041,-5.4063,-5.4081,0,0,0,0,0,0,-5.3951,-5.3911,-5.3876,-5.3942,-5.3936,-5.3904,-5.3943,-5.3899,-5.3907,-5.3897,-5.3838,-5.3833,-5.3893,-5.388,-5.3832,-5.3943,-5.3872,-5.3883,-5.3948,-5.3968,-5.3985,-5.3985,-5.3739,0,0,0,0,0,-5.3983,-5.4008,-5.3972,-5.4034,-5.4033,-5.399,-5.3999,-5.3963,-5.3955,-5.3952,-5.393,-5.3925,-5.3943,-5.3955,-5.397,-5.4048,-5.404,-5.4087,-5.4104,-5.4118,-5.4127,-5.4166,-5.4186,-5.3973,-5.3973,-5.3973,0,0,-5.4048,-5.4029,-5.4048,-5.4055,-5.4046,-5.4073,-5.3988,-5.402,-5.404,-5.3957,-5.4003,-5.3988,-5.3978,-5.4043,-5.407,-5.4033,-5.4185,-5.413,-5.4141,-5.4142,-5.4178,-5.4198,-5.4216,-5.3979,-5.3978,-5.3977,0,0,-5.418,-5.4169,-5.4219,-5.4213,-5.4201,-5.4173,-5.4185,-5.4161,-5.4147,-5.4193,-5.4131,-5.4155,-5.4188,-5.4183,-5.4185,-5.432,-5.427,-5.4327,-5.4412,-5.4452,-5.4469,-5.4483,-5.4529,-5.4547,-5.4336,-5.4337,-5.4337,0,-5.4262,-5.43,-5.425,-5.4287,-5.4292,-5.422,-5.427,-5.4267,-5.4261,-5.4266,-5.4226,-5.4266,-5.4255,-5.4317,-5.435,-5.4355,-5.4367,-5.4327,-5.447,-5.4484,-5.4497,-5.454,-5.4558,-5.4343,-5.4342,-5.4342,-5.4341,0,-5.4401,-5.4429,-5.4471,-5.4467,-5.4478,-5.4521,-5.4479,-5.4495,-5.446,-5.4436,-5.4485,-5.4469,-5.4479,-5.4492,-5.4458,-5.455,-5.4528,-5.4481,-5.4408,-5.4525,-5.4564,-5.4581,-5.4353,-5.435,-5.4348,-5.4347,0,0,-5.4595,-5.4566,-5.4582,-5.458,-5.4564,-5.4585,-5.4627,-5.4637,-5.4652,-5.4652,-5.4684,-5.4715,-5.4672,-5.4674,-5.464,-5.4675,-5.4781,-5.4623,-5.4622,-5.465,-5.4881,-5.4914,-5.4934,-5.4751,-5.4754,-5.4756,-5.4881,0,-5.4719,-5.4786,-5.4745,-5.4819,-5.4844,-5.4779,-5.4815,-5.481,-5.479,-5.4809,-5.4787,-5.4809,-5.4751,-5.4752,-5.4784,-5.4761,-5.4826,-5.4753,-5.4779,-5.478,-5.4779,-5.4955,-5.4989,-5.5107,-5.4896,-5.4899,-5.4901,0,-5.4871,-5.4878,-5.4955,-5.4935,-5.4944,-5.4977,-5.4984,-5.5004,-5.4997,-5.498,-5.4985,-5.4942,-5.4982,-5.4915,-5.4969,-5.492,-5.4929,-5.492,-5.4924,-5.4921,-5.4844,-5.4954,-5.5144,-5.516,-5.4925,-5.4923,-5.4921,0,-5.5001,-5.5031,-5.508,-5.5081,-5.506,-5.5085,-5.5078,-5.5068,-5.5077,-5.5084,-5.5089,-5.5102,-5.5107,-5.5118,-5.508,-5.5034,-5.5139,-5.5068,-5.5124,-5.5126,-5.5145,-5.5144,-5.5336,-5.5158,-5.5158,-5.5158,-5.5157,0,-5.5141,-5.519,-5.5139,-5.5169,-5.5222,-5.5176,-5.523,-5.5216,-5.5209,-5.5235,-5.5181,-5.5207,-5.5158,-5.5179,-5.5151,-5.5199,-5.5203,-5.519,-5.5181,-5.5192,-5.5193,-5.5194,-5.5183,-5.5162,-5.5161,-5.5161,-5.516,0,-5.5294,-5.5261,-5.5311,-5.5289,-5.5284,-5.5325,-5.5305,-5.5333,-5.5311,-5.5346,-5.5351,-5.5317,-5.534,-5.5304,-5.5323,-5.5304,-5.537,-5.5351,-5.5372,-5.5365,-5.5422,-5.5416,-5.5618,-5.5641,-5.5453,-5.5455,-5.5456,0,-5.5383,-5.5419,-5.5401,-5.5415,-5.5411,-5.5435,-5.5445,-5.5403,-5.5415,-5.5412,-5.544,-5.5459,-5.547,-5.5511,-5.5487,-5.5502,-5.548,-5.555,-5.5481,-5.5492,-5.5477,-5.5474,-5.5476,-5.5563,-5.5565,-5.5567,-5.5568,0,-5.5543,-5.5527,-5.5543,-5.5555,-5.5568,-5.5575,-5.5578,-5.5593,-5.5549,-5.5566,-5.5589,-5.5599,-5.5619,-5.5637,-5.5647,-5.5639,-5.5596,-5.5591,-5.5604,-5.5614,-5.5623,-5.5616,-5.5406,-5.5585,-5.5584,-5.5582,-5.5581,-5.5581,-5.5664,-5.5693,-5.5686,-5.5706,-5.5705,-5.571,-5.5734,-5.5717,-5.5736,-5.5748,-5.5723,-5.5753,-5.5748,-5.5756,-5.5754,-5.5776,-5.5745,-5.5765,-5.5769,-5.5774,-5.5782,-5.5624,-5.5779,-5.5778,-5.5777,-5.5777,-5.5777,0,-5.5819,-5.5812,-5.5832,-5.5839,-5.5855,-5.5816,-5.5819,-5.5835,-5.5861,-5.5861,-5.5874,-5.5902,-5.5921,-5.5901,-5.5916,-5.5938,-5.5919,-5.5943,-5.5939,-5.5937,-5.581,-5.5795,-5.5958,-5.5958,-5.5958,-5.5958,-5.5958,-5.5958,-5.5901,-5.5948,-5.5932,-5.5978,-5.5971,-5.5999,-5.6004,-5.6009,-5.6008,-5.6041,-5.6056,-5.6044,-5.6036,-5.6051,-5.6067,-5.606,-5.6067,-5.6098,-5.6084,-5.5964,-5.5946,-5.5929,-5.5915,-5.6101,-5.6101,-5.6209,-5.621,-5.6211]},{"header":{"parameterUnit":"m.s-1","parameterCategory":1,"la1":30.2991,"la2":30.254,"lo1":-89.0895,"lo2":-89.0444,"dy":0.0017,"dx":0.0017,"nx":28,"ny":28,"refTime":"2024-08-30T21:00:00:Z","depth":0,"parameterNumber":3,"parameterNumberName":"V-component_of_WINDS"},"data":[0,0,0,0,0,0,0,0,0,0,0,0,0,0,0,0,0,0,0,0,0,0,0,0,0,0,0,0,0,0,0,0,0,0,0,0,0,0,0,0,0,0,0,0,0,0,0,0,0,0,0,0,0,0,0,0,0,0,0.314,0.3139,0,0.3042,0.3041,0.304,0.2898,0.2896,0.2894,0.2891,0.2798,0.2798,0.2797,0,0,0,0,0,0,0,0,0,0,0,0,0,0.3211,0.321,0.314,0.3139,0.3138,0.3042,0.3041,0.304,0.2899,0.2896,0.2893,0.289,0.2798,0.2798,0.2797,0,0,0,0,0,0,0,0,0,0,0,0,0,0.3154,0.321,0.3141,0.3056,0.3047,0.3043,0.3041,0.3039,0.29,0.2896,0.2892,0.2889,0.2798,0.2798,0.2797,0.287,0,0,0.2796,0.2796,0,0,0,0,0,0,0,0,0.3157,0.3151,0.307,0.3062,0.3052,0.2978,0.3031,0.2983,0.29,0.2956,0.2891,0.2887,0.2861,0.2856,0.2846,0.2865,0.2861,0.2796,0.2796,0.2796,0.2796,0,0,0,0,0,0,0,0.3161,0.3155,0.3102,0.3069,0.3058,0.3024,0.3012,0.3021,0.2931,0.2951,0.294,0.293,0.2856,0.2846,0.2842,0.286,0.2796,0.2796,0.2796,0.2796,0.2933,0.2936,0,0,0,0,0,0,0.3177,0.3159,0.3105,0.3099,0.3096,0.3026,0.3012,0.3006,0.293,0.2915,0.2933,0.2924,0.2849,0.2843,0.2839,0.2918,0.2796,0.2796,0.2796,0.2929,0.2934,0.2938,0,0,0,0,0,0,0.3179,0.3173,0.3109,0.3126,0.3115,0.3029,0.3023,0.3006,0.2996,0.2917,0.2901,0.294,0.2845,0.2839,0.2862,0.2913,0.2796,0.2795,0.2925,0.293,0.2936,0.3078,0,0,0,0,0,0,0.3181,0.3175,0.3201,0.3127,0.3114,0.3133,0.3026,0.3007,0.2995,0.2982,0.2919,0.2905,0.2842,0.2863,0.2862,0.291,0.2795,0.292,0.2927,0.2934,0.3069,0.3088,0.3105,0,0,0,0,0,0.3184,0.3246,0.3203,0.3197,0.3144,0.3136,0.3129,0.3054,0.3,0.3026,0.2974,0.2907,0.2907,0.2867,0.2864,0.2913,0.2916,0.2925,0.2933,0.3061,0.3084,0.3104,0,0,0,0,0,0,0.3331,0.3235,0.3186,0.3225,0.319,0.3112,0.3143,0.3081,0.3062,0.3051,0.2959,0.2946,0.2982,0.2949,0.2906,0.2979,0.2901,0.291,0.2999,0.3021,0.3038,0.3047,0.2795,0,0,0,0,0,0.3367,0.3367,0.3284,0.3327,0.3311,0.323,0.3224,0.3168,0.3129,0.3114,0.3064,0.303,0.3022,0.3019,0.3007,0.3062,0.3047,0.3094,0.3112,0.3127,0.3137,0.3163,0.3184,0.2966,0.2966,0.2966,0,0,0.3444,0.3391,0.3397,0.3355,0.3321,0.3324,0.3219,0.3227,0.3229,0.3116,0.3134,0.3097,0.3052,0.3092,0.3106,0.3066,0.3193,0.3138,0.3151,0.3152,0.3174,0.3195,0.3214,0.2972,0.2971,0.297,0,0,0.3585,0.3545,0.3576,0.3543,0.3491,0.3436,0.3444,0.3375,0.3345,0.3361,0.3276,0.3277,0.3265,0.3237,0.3222,0.3349,0.3286,0.3347,0.3443,0.347,0.3487,0.3502,0.3548,0.3566,0.3356,0.3357,0.3357,0,0.3688,0.3687,0.36,0.3613,0.3597,0.3491,0.3523,0.3495,0.3444,0.3436,0.339,0.3372,0.3335,0.3366,0.3397,0.3387,0.3394,0.3356,0.3491,0.3505,0.3518,0.3561,0.3579,0.3365,0.3364,0.3363,0.3362,0,0.3816,0.3816,0.3848,0.3798,0.3785,0.3808,0.3726,0.3723,0.3668,0.3619,0.3637,0.3588,0.3564,0.3566,0.3514,0.359,0.3566,0.3507,0.3428,0.3548,0.3587,0.3603,0.3376,0.3373,0.3371,0.3369,0,0,0.4051,0.3949,0.3962,0.3938,0.3871,0.3871,0.3888,0.3862,0.3863,0.383,0.3843,0.3834,0.3778,0.376,0.3703,0.3726,0.3831,0.3663,0.3661,0.3698,0.3913,0.396,0.3981,0.3787,0.379,0.3792,0.3917,0,0.418,0.4202,0.4123,0.4167,0.4167,0.4064,0.4079,0.4041,0.3995,0.3989,0.3938,0.3934,0.3859,0.3848,0.3866,0.3815,0.3873,0.3804,0.3802,0.3803,0.3818,0.4001,0.4051,0.4171,0.3932,0.3934,0.3936,0,0.4335,0.4308,0.435,0.4279,0.4277,0.4292,0.4261,0.4256,0.421,0.4175,0.4153,0.4085,0.4099,0.4021,0.4039,0.3993,0.3987,0.3961,0.3964,0.3963,0.3879,0.4007,0.4207,0.4226,0.3959,0.3958,0.3956,0,0.4504,0.4477,0.4499,0.4481,0.4399,0.4412,0.4379,0.4329,0.4318,0.4291,0.4283,0.4259,0.4247,0.4231,0.4159,0.4109,0.4186,0.4102,0.4159,0.4161,0.4183,0.4183,0.4387,0.4175,0.4175,0.4174,0.4174,0,0.4659,0.469,0.4573,0.4588,0.4618,0.4527,0.4561,0.4518,0.4474,0.4479,0.4389,0.4396,0.4299,0.4295,0.4239,0.4263,0.4258,0.4231,0.4216,0.424,0.4244,0.4237,0.4228,0.4179,0.4178,0.4177,0.4176,0,0.4855,0.4778,0.4795,0.4714,0.4694,0.4721,0.4653,0.4663,0.4609,0.4616,0.4613,0.4529,0.452,0.4445,0.442,0.4382,0.4429,0.4396,0.4444,0.4434,0.4496,0.4492,0.4705,0.4729,0.4501,0.4503,0.4505,0,0.496,0.498,0.4901,0.4896,0.4866,0.486,0.4847,0.4757,0.4748,0.4696,0.4713,0.4696,0.4677,0.4668,0.4607,0.4587,0.4555,0.463,0.4552,0.4575,0.4558,0.4559,0.4561,0.4649,0.4652,0.4654,0.4656,0,0.5156,0.5115,0.5099,0.5069,0.5055,0.5028,0.4996,0.4998,0.4899,0.4893,0.4881,0.4866,0.4838,0.4823,0.4792,0.4759,0.4693,0.468,0.4693,0.472,0.4747,0.4735,0.4492,0.4677,0.4675,0.4674,0.4672,0.4672,0.531,0.5323,0.5269,0.5253,0.5218,0.5189,0.5194,0.514,0.5127,0.5096,0.5044,0.504,0.4992,0.4943,0.4915,0.4912,0.4872,0.489,0.4895,0.4902,0.4915,0.4745,0.4905,0.4905,0.4904,0.4903,0.4903,0,0.5503,0.5461,0.5447,0.5403,0.5391,0.5324,0.5284,0.528,0.5276,0.5236,0.5218,0.5204,0.5188,0.5124,0.5101,0.5111,0.508,0.5108,0.5108,0.5102,0.4951,0.4943,0.5134,0.5134,0.5134,0.5134,0.5134,0.5134,0.5602,0.562,0.5574,0.5574,0.5533,0.5525,0.5508,0.5482,0.5449,0.5436,0.5421,0.5378,0.5329,0.5301,0.5284,0.5265,0.5262,0.5302,0.5274,0.5135,0.5113,0.5092,0.5084,0.5301,0.5301,0.5425,0.5426,0.5427]}]]